ELECTRON KICK STAGE R/B, 64341

Orbit data source: Space-Track

ELECTRON KICK STAGE R/B, 64341 is space debris in LEO originally from a launch on Wed, 11 Jun 2025 UTC launched from the Rocket Lab Launch Complex (RLLC). Debris objects in space refer to the collection of defunct objects orbiting the Earth. Examples of debris include non-operational satellites, rocket bodies, and fragments generated from explosions, collisions, or faulty payload assembly.

Loading next visibility...
Identifier
64341, 2025-125B
Orbit
LEO
Last TLE update
14 hours ago
Origin
Manufacturer
Rocket Lab
Mission
Spacecraft
Bus & Motor
KICK STAGE, CURIE
Mass
~42 kg wet, ~42 kg dry
Launch date (UTC)
2025-06-11 (2 months ago)
Launch vehicle
Unknown
Launch site
Rocket Lab Launch Complex (RLLC)
Object type
Payload
Rocket body
Debris
Shape & HBR
Trunc Cone, 0.7 m
Radar Cross Section
0.760 m², Medium (>0.1 m² and < 1m²)

Expand to show TLE details & history

TLE from 14 hours ago
0 ELECTRON KICK STAGE R/B
1 64341U 25125B   25211.18753601  .00194409  17087-4  10935-2 0  9999
2 64341  42.0058 138.2091 0172622 250.8663 107.3426 15.60298369  7541
Epoch: 2025-07-30T04:30Z
TLE epoch observation values (Epoch: 2025-07-30T04:30:03.111Z)
Latitude
-0°
Longitude
122.62578°
Altitude
423.08 km
Speed
7.639 km/s
True Right ascension
09h 12m 50s
True Declination
0° 00' 00"
Sunlit
Object was in daylight at epoch
Visualization orbit readout
Latitude
40.08791°
Longitude
-129.32435°
Altitude
487.318 km
Speed
7.571 km/s
Apparent Right ascension
18h 18m 44s
Apparent Declination
2° 07' 43"
Sunlit
Object is in daylight
Visualization observer readout
Local Sidereal Time
08:21:40
Azimuth
41.381° NE
Elevation
-39.418°
Doppler factor
1
Orbital elements
Apogee altitude
505.752 km
Perigee altitude
272.123 km
Semi-major axis
6,767.074 km
Eccentricity
0.01726
Inclination
42.0058°
RAAN
138.2091°
Arg. of periapsis
250.8663°
True anomaly
109.21837°
Mean anomaly
107.3426°
Eccentric anomaly
108.28173°
Mean motion
3.8989 °/min
Orbital period
92.33 mins
BSTAR
0.0010935
Loading maneuver chart data...
Loading SW <> Apogee altitude chart data...
Loading historical data...
Loading historical data...
Loading historical data...
Loading historical data...
Loading historical data...
Loading historical data...
Loading historical data...
Other satellites on launch #125 in the year 2025 (2025-06-11 UTC)
|